Date String (YYYY-MM-DD hh:mm:ss) UTC,Instrument flags,absolute air pressure of the measurement (hPa),sample flow rate (lpm),inlet stack bypass flow (lpm),air temperature of the measurement (°C),ambient temperature measured by the external sensor (°C),aerosol sample conditioner tube jacket temperature (°C),OPC LED temperature (°C),internal box temperature (°C),relative humidity of the measurement (%),span deviation,mass concentration of particles derived from Lorenz-Mie calculation of OPC scattering (μg/m³),mass concentration of particles derived from Lorenz-Mie calculation of OPC scattering (μg/m³),mass concentration of particles derived from Lorenz-Mie calculation of OPC scattering (μg/m³)
DateTimeUTC,F1_M11,P_M11,Q1_M11,Q2_M11,T1_M11,T2_M11,T3_M11,T4_M11,T5_M11,U1_M11,ZSPAN_M11,X0_M11,X2_M11,X1_M11
2024-03-14 09:00:00,SystemResetWarning,0825.7,4.98,000.00,018.6,017.6,000.0,027.2,020.1,27.5,0000.0,0000.02,0000.02,0000.02
2024-03-14 09:01:00,SystemResetWarning,0825.7,5.00,000.00,018.6,017.4,000.0,027.2,020.0,27.6,0000.0,0000.02,0000.02,0000.02
2024-03-14 09:02:00,SystemResetWarning,0825.7,5.01,000.00,018.5,017.3,000.0,027.2,020.0,27.7,0000.0,0000.04,0000.03,0000.02
2024-03-14 09:03:00,SystemResetWarning,0825.6,5.00,000.00,018.4,017.2,000.0,027.2,020.0,27.8,0000.0,0000.04,0000.03,0000.02
2024-03-14 09:04:00,SystemResetWarning,0825.7,4.99,000.00,018.4,017.0,000.0,027.2,020.0,27.9,0000.0,0000.04,0000.04,0000.02
2024-03-14 09:05:00,SystemResetWarning,0825.7,5.00,000.00,018.4,017.0,000.0,027.2,020.0,27.9,0000.0,0000.05,0000.04,0000.02
2024-03-14 09:06:00,SystemResetWarning,0825.7,4.99,000.00,018.4,016.9,000.0,027.2,020.0,28.0,0000.0,0000.05,0000.04,0000.02
2024-03-14 09:07:00,SystemResetWarning,0825.8,5.00,000.00,018.3,016.9,000.0,027.2,020.0,28.1,0000.0,0000.05,0000.04,0000.02
2024-03-14 09:08:00,SystemResetWarning,0825.7,5.01,000.00,018.3,016.9,000.0,027.2,020.0,28.1,0000.0,0000.05,0000.04,0000.02
2024-03-14 09:09:00,SystemResetWarning,0825.8,5.02,000.00,018.4,017.7,000.0,027.3,020.4,28.0,0000.0,0000.06,0000.04,0000.02
2024-03-14 09:10:00,SystemResetWarning,0825.9,4.99,000.00,018.7,018.8,000.0,027.3,021.0,27.6,0000.0,0000.08,0000.05,0000.02
2024-03-14 09:11:00,SystemResetWarning,0825.9,5.01,000.00,018.9,019.4,000.0,027.4,021.3,27.1,0000.0,0000.08,0000.05,0000.02
2024-03-14 09:12:00,SystemResetWarning,0825.8,4.99,000.00,019.0,019.1,000.0,027.3,021.1,27.0,0000.0,0000.09,0000.06,0000.03
2024-03-14 09:13:00,SystemResetWarning,0825.8,4.99,000.00,018.9,018.7,000.0,027.3,020.8,27.0,0000.0,0000.07,0000.04,0000.03
2024-03-14 09:14:00,SystemResetWarning,0825.9,5.01,000.00,018.8,018.3,000.0,027.3,020.5,27.1,0000.0,0000.07,0000.04,0000.03
2024-03-14 09:15:00,SystemResetWarning,0825.9,5.01,000.00,018.7,017.9,000.0,027.2,020.3,27.3,0000.0,0000.07,0000.04,0000.03
2024-03-14 09:16:00,SystemResetWarning,0825.9,5.00,000.00,018.7,017.6,000.0,027.2,020.1,27.4,0000.0,0000.07,0000.04,0000.03
2024-03-14 09:17:00,SystemResetWarning,0825.9,4.99,000.00,018.6,017.3,000.0,027.2,020.0,27.6,0000.0,0000.08,0000.05,0000.03
2024-03-14 09:18:00,SystemResetWarning,0825.9,4.99,000.00,018.5,017.1,000.0,027.2,020.0,27.7,0000.0,0000.09,0000.05,0000.03
2024-03-14 09:19:00,SystemResetWarning,0825.9,4.99,000.00,018.5,017.0,000.0,027.2,020.0,27.7,0000.0,0000.08,0000.05,0000.03
2024-03-14 09:20:00,SystemResetWarning,0825.9,5.00,000.00,018.4,016.9,000.0,027.2,020.0,27.8,0000.0,0000.08,0000.05,0000.03
2024-03-14 09:21:00,SystemResetWarning,0825.9,5.00,000.00,018.4,016.8,000.0,027.2,020.0,27.9,0000.0,0000.06,0000.04,0000.03
2024-03-14 09:22:00,SystemResetWarning,0825.9,5.00,000.00,018.3,016.8,000.0,027.2,020.0,27.9,0000.0,0000.05,0000.04,0000.03
2024-03-14 09:23:00,SystemResetWarning,0826.0,5.00,000.00,018.4,017.2,000.0,027.3,020.2,27.9,0000.0,0000.05,0000.03,0000.03
2024-03-14 09:24:00,SystemResetWarning,0826.1,5.00,000.00,018.6,018.3,000.0,027.3,020.8,27.6,0000.0,0000.05,0000.03,0000.02
2024-03-14 09:25:00,SystemResetWarning,0826.1,4.99,000.00,018.9,019.3,000.0,027.4,021.3,27.1,0000.0,0000.05,0000.03,0000.02
2024-03-14 09:26:00,SystemResetWarning,0826.1,4.99,000.00,019.0,019.3,000.0,027.4,021.2,26.8,0000.0,0000.06,0000.04,0000.03
2024-03-14 09:27:00,SystemResetWarning,0826.1,5.01,000.00,019.0,018.8,000.0,027.3,020.9,26.8,0000.0,0000.06,0000.04,0000.02
2024-03-14 09:28:00,SystemResetWarning,0826.1,4.99,000.00,018.9,018.4,000.0,027.3,020.6,27.0,0000.0,0000.09,0000.04,0000.03
2024-03-14 09:29:00,SystemResetWarning,0826.2,5.00,000.00,018.8,018.0,000.0,027.3,020.4,27.1,0000.0,0000.12,0000.06,0000.03
2024-03-14 09:30:00,SystemResetWarning,0826.2,5.00,000.00,018.7,017.7,000.0,027.3,020.2,27.2,0000.0,0000.15,0000.07,0000.03
2024-03-14 09:31:00,SystemResetWarning,0826.2,5.00,000.00,018.6,017.4,000.0,027.3,020.1,27.4,0000.0,0000.17,0000.08,0000.04
2024-03-14 09:32:00,SystemResetWarning,0826.2,5.00,000.00,018.5,017.2,000.0,027.2,020.0,27.6,0000.0,0000.18,0000.09,0000.06
2024-03-14 09:33:00,SystemResetWarning,0826.2,5.00,000.00,018.5,017.0,000.0,027.2,020.0,28.6,0000.0,0000.21,0000.12,0000.08
2024-03-14 09:34:00,SystemResetWarning,0826.2,5.00,000.00,018.4,016.9,000.0,027.2,020.0,28.8,0000.0,0000.24,0000.14,0000.10
2024-03-14 09:35:00,SystemResetWarning,0826.2,5.00,000.00,018.4,016.8,000.0,027.2,020.0,28.2,0000.0,0000.26,0000.15,0000.11
2024-03-14 09:36:00,SystemResetWarning,0826.3,5.01,000.00,018.4,016.7,000.0,027.2,020.0,28.1,0000.0,0000.30,0000.19,0000.13
2024-03-14 09:37:00,SystemResetWarning,0826.4,5.01,000.00,018.3,016.6,000.0,027.2,020.0,28.1,0000.0,0000.36,0000.23,0000.15
2024-03-14 09:38:00,SystemResetWarning,0826.3,5.00,000.00,018.4,017.2,000.0,027.3,020.2,28.1,0000.0,0000.39,0000.25,0000.18
2024-03-14 09:39:00,SystemResetWarning,0826.4,5.00,000.00,018.6,018.4,000.0,027.3,020.8,27.7,0000.0,0000.39,0000.26,0000.20
2024-03-14 09:40:00,SystemResetWarning,0826.4,4.99,000.00,018.8,018.9,000.0,027.3,021.0,27.3,0000.0,0000.39,0000.28,0000.22
2024-03-14 09:41:00,SystemResetWarning,0826.4,4.99,000.00,018.8,018.7,000.0,027.3,020.8,27.2,0000.0,0000.44,0000.31,0000.24
2024-03-14 09:42:00,SystemResetWarning,0826.4,5.01,000.00,018.8,018.4,000.0,027.3,020.6,27.3,0000.0,0000.57,0000.35,0000.27
2024-03-14 09:43:00,SystemResetWarning,0826.4,5.01,000.00,018.7,018.1,000.0,027.2,020.4,27.3,0000.0,0000.66,0000.38,0000.28
2024-03-14 09:44:00,SystemResetWarning,0826.4,4.99,000.00,018.7,017.8,000.0,027.2,020.2,27.5,0000.0,0000.69,0000.39,0000.29
2024-03-14 09:45:00,SystemResetWarning,0826.4,4.99,000.00,018.6,017.6,000.0,027.2,020.1,27.6,0000.0,0000.75,0000.42,0000.30
2024-03-14 09:46:00,SystemResetWarning,0826.3,5.00,000.00,018.5,017.4,000.0,027.2,020.0,27.7,0000.0,0000.78,0000.44,0000.32
2024-03-14 09:47:00,SystemResetWarning,0826.3,5.01,000.00,018.5,017.3,000.0,027.2,020.0,27.8,0000.0,0000.79,0000.45,0000.33
2024-03-14 09:48:00,SystemResetWarning,0826.4,5.00,000.00,018.4,017.1,000.0,027.2,020.0,27.8,0000.0,0000.79,0000.45,0000.34
2024-03-14 09:49:00,SystemResetWarning,0826.4,5.00,000.00,018.4,017.0,000.0,027.2,020.0,27.9,0000.0,0000.80,0000.45,0000.35
2024-03-14 09:50:00,SystemResetWarning,0826.4,5.00,000.00,018.4,016.9,000.0,027.2,020.0,28.0,0000.0,0000.80,0000.46,0000.36
2024-03-14 09:51:00,SystemResetWarning,0826.4,5.00,000.00,018.3,016.8,000.0,027.2,020.0,28.0,0000.0,0000.86,0000.48,0000.37
2024-03-14 09:52:00,SystemResetWarning,0826.4,4.99,000.00,018.3,016.8,000.0,027.2,020.0,28.0,0000.0,0000.83,0000.47,0000.37
2024-03-14 09:53:00,SystemResetWarning,0826.4,5.00,000.00,018.4,017.3,000.0,027.2,020.3,28.0,0000.0,0000.73,0000.45,0000.37
2024-03-14 09:54:00,SystemResetWarning,0826.5,5.02,000.00,018.6,018.5,000.0,027.3,020.9,27.6,0000.0,0000.70,0000.46,0000.38
2024-03-14 09:55:00,SystemResetWarning,0826.6,4.98,000.00,018.8,018.9,000.0,027.3,021.1,27.2,0000.0,0000.72,0000.47,0000.38
2024-03-14 09:56:00,SystemResetWarning,0826.5,5.00,000.00,018.8,018.6,000.0,027.3,020.8,27.2,0000.0,0000.67,0000.45,0000.39
2024-03-14 09:57:00,SystemResetWarning,0826.5,5.01,000.00,018.8,018.3,000.0,027.2,020.5,27.2,0000.0,0000.70,0000.46,0000.39
2024-03-14 09:58:00,SystemResetWarning,0826.5,5.00,000.00,018.7,017.9,000.0,027.2,020.3,27.4,0000.0,0000.70,0000.47,0000.40
2024-03-14 09:59:00,SystemResetWarning,0826.6,5.00,000.00,018.6,017.7,000.0,027.2,020.1,27.5,0000.0,0000.70,0000.48,0000.40
